Miscellaneous Local Product
Issued by NWS Hastings, NE

Home | Current Version | Previous Version | Graphics & Text | Print | Product List | Glossary On
Versions: 1 2 3 4 5 6 7 8 9 10 11 12 13 14 15 16 17 18 19 20 21 22 23 24 25 26 27 28 29 30 31 32 33 34 35 36 37 38 39 40 41 42 43 44 45 46 47 48 49 50
611
AXUS43 KGID 260902
MISGRI

GID CWA HOURLY WEATHER ROUNDUP
NATIONAL WEATHER SERVICE HASTINGS NE
400 AM CDT FRI MAY 26 2017

NOTE: "FAIR" INDICATES FEW OR NO CLOUDS BELOW 12,000 FEET WITH NO
SIGNIFICANT WEATHER AND/OR OBSTRUCTIONS TO VISIBILITY.

...SOUTH CENTRAL NEBRASKA...

CITY           SKY/WX    TMP DP  RH WIND       PRES   REMARKS
GRAND ISLAND   CLOUDY    59  56  89 N3        29.67R
HASTINGS       MOCLDY    62  55  77 N8        29.67R
KEARNEY        CLOUDY    61  52  72 N9        29.69R
ORD            CLOUDY    57  52  83 NW14      29.70R
YORK           CLOUDY    61  59  94 NW8       29.65R
AURORA         CLOUDY    60  58  90 N3        29.66R
LEXINGTON      MOCLDY    60  54  82 N7        29.74R
HOLDREGE       PTCLDY    59  55  86 N5        29.69R
HEBRON         CLOUDY    62  60  94 NW6       29.65R

...NEBRASKA PANHANDLE...

CITY           SKY/WX    TMP DP  RH WIND       PRES   REMARKS
CHADRON        PTCLDY    45  38  76 CALM      29.89R
ALLIANCE       CLOUDY    46  41  82 NW9       29.89R
SCOTTSBLUFF    PTCLDY    47  35  63 NW10      29.93R
SIDNEY         CLOUDY    46  42  86 NW10      29.91R

...WESTERN AND NORTH CENTRAL NEBRASKA...

CITY           SKY/WX    TMP DP  RH WIND       PRES   REMARKS
VALENTINE      PTCLDY    51  40  65 NW6       29.83R
AINSWORTH      MOCLDY    55  43  64 N15G22    29.79R
ONEILL         MOCLDY    58  44  59 NW18      29.74R
BROKEN BOW     CLOUDY    59  49  69 N17       29.76R
IMPERIAL       CLOUDY    56  52  86 NW12      29.83R
NORTH PLATTE   MOCLDY    55  53  93 NW7G20    29.82R
MCCOOK         CLOUDY    59  54  83 NW7       29.77R

...EASTERN NEBRASKA...

CITY           SKY/WX    TMP DP  RH WIND       PRES   REMARKS
NORFOLK        MOCLDY    54  50  86 W3        29.66R
SO SIOUX CITY  CLOUDY    59  56  89 E5        29.65S
TEKAMAH        CLOUDY    62  56  80 SE6       29.64S
ALBION         CLOUDY    57  53  87 CALM      29.67S
OMAHA EPPLEY   CLOUDY    65  55  70 SE5       29.64R
OFFUTT AFB     CLOUDY    62  56  81 E5        29.63R
MILLARD        CLOUDY    66  58  77 CALM      29.63F
LINCOLN        CLOUDY    63  58  83 NE7       29.62F
NEBRASKA CITY  RAIN      64  54  69 CALM      29.64R
BEATRICE       MOCLDY    61  60  96 CALM      29.62S
FALLS CITY     CLOUDY    61  58  90 NE3       29.59R

...NORTHERN KANSAS...

CITY           SKY/WX    TMP DP  RH WIND       PRES   REMARKS
GOODLAND       CLOUDY    55  51  86 NW14      29.82R
HILL CITY      PTCLDY    57  54  89 W6        29.71R
NORTON         SUNNY     54  50  87 W9        29.73R
PHILLIPSBURG   CLEAR     55  55 100 SW3       29.69R
SMITH CENTER   CLEAR     61  57  88 NW5       29.68R
HAYS           CLEAR     56  53  90 NW8       29.72R
RUSSELL        CLEAR     58  56  93 NW10      29.68R
CONCORDIA      MOCLDY    60  60 100 SW5       29.66R
SALINA         PTCLDY    66  61  84 N5        29.62R
TOPEKA         CLOUDY    65  62  90 S9        29.57R



USA.gov is the U.S. government's official web portal to all federal, state and local government web resources and services.